Hourly Weather Brasília

Today, 26 October, Monday

Time Temperature Precipitation Wind Pressure Humidity
00:00 +20°C° 0 mm 2 mps 662 mmHg 86%
01:00 +20°C° 0.1 mm 2 mps 662 mmHg 86%
02:00 +20°C° 0.1 mm 2 mps 662 mmHg 87%
03:00 +21°C° 0.1 mm 1 mps 661 mmHg 88%
04:00 +21°C° 0.1 mm 1 mps 662 mmHg 88%
05:00 +21°C° 0.1 mm 1 mps 662 mmHg 88%
06:00 +21°C° 0.1 mm 1 mps 662 mmHg 88%
07:00 +23°C° 0.2 mm 2 mps 663 mmHg 81%
08:00 +25°C° 0.2 mm 2 mps 664 mmHg 73%
09:00 +27°C° 0.2 mm 3 mps 665 mmHg 65%
10:00 +27°C° 0.6 mm 3 mps 665 mmHg 64%
11:00 +28°C° 0.6 mm 3 mps 664 mmHg 63%
12:00 +28°C° 0.6 mm 3 mps 664 mmHg 62%
13:00 +28°C° 1.4 mm 3 mps 664 mmHg 64%
14:00 +27°C° 1.4 mm 4 mps 663 mmHg 65%
15:00 +27°C° 1.4 mm 4 mps 663 mmHg 67%
16:00 +26°C° 2.1 mm 3 mps 662 mmHg 72%
17:00 +25°C° 2.1 mm 2 mps 662 mmHg 76%
18:00 +24°C° 2.1 mm 2 mps 662 mmHg 80%
19:00 +23°C° 0.1 mm 2 mps 662 mmHg 81%
20:00 +23°C° 0.1 mm 1 mps 662 mmHg 82%
21:00 +22°C° 0.1 mm 1 mps 663 mmHg 83%
22:00 +22°C° 0 mm 1 mps 663 mmHg 82%
23:00 +22°C° 0 mm 1 mps 663 mmHg 82%

Tomorrow, 27 October, Tuesday

Time Temperature Precipitation Wind Pressure Humidity
00:00 +22°C° 0 mm 1 mps 663 mmHg 81%
01:00 +22°C° 0 mm 1 mps 662 mmHg 81%
02:00 +20°C° 0 mm 0 mps 662 mmHg 82%
03:00 +20°C° 0 mm 0 mps 661 mmHg 82%
04:00 +20°C° 0 mm 0 mps 661 mmHg 83%
05:00 +21°C° 0 mm 1 mps 661 mmHg 85%
06:00 +21°C° 0 mm 1 mps 662 mmHg 86%
07:00 +23°C° 0 mm 1 mps 662 mmHg 80%
08:00 +25°C° 0 mm 1 mps 663 mmHg 73%
09:00 +26°C° 0 mm 2 mps 664 mmHg 67%
10:00 +27°C° 1 mm 2 mps 664 mmHg 65%
11:00 +28°C° 1 mm 3 mps 663 mmHg 62%
12:00 +29°C° 1 mm 3 mps 663 mmHg 59%
13:00 +28°C° 1.7 mm 3 mps 663 mmHg 61%
14:00 +28°C° 1.7 mm 3 mps 662 mmHg 64%
15:00 +28°C° 1.7 mm 3 mps 661 mmHg 66%
16:00 +26°C° 1.9 mm 3 mps 661 mmHg 71%
17:00 +25°C° 1.9 mm 2 mps 661 mmHg 75%
18:00 +24°C° 1.9 mm 2 mps 661 mmHg 80%
19:00 +23°C° 0.1 mm 2 mps 661 mmHg 80%
20:00 +23°C° 0.1 mm 1 mps 661 mmHg 81%
21:00 +23°C° 0.1 mm 1 mps 662 mmHg 81%
22:00 +23°C° 0.1 mm 1 mps 662 mmHg 81%
23:00 +22°C° 0.1 mm 1 mps 662 mmHg 81%

Day after tomorrow, 28 October, Wednesday

Time Temperature Precipitation Wind Pressure Humidity
00:00 +22°C° 0.1 mm 1 mps 662 mmHg 82%
01:00 +22°C° 0.1 mm 1 mps 661 mmHg 82%
02:00 +22°C° 0.1 mm 1 mps 661 mmHg 82%
03:00 +22°C° 0.1 mm 1 mps 661 mmHg 82%
04:00 +22°C° 0.4 mm 1 mps 661 mmHg 84%
05:00 +22°C° 0.4 mm 1 mps 662 mmHg 86%
06:00 +21°C° 0.4 mm 1 mps 662 mmHg 89%
07:00 +22°C° 0.4 mm 1 mps 662 mmHg 85%
08:00 +23°C° 0.4 mm 1 mps 663 mmHg 81%
09:00 +24°C° 0.4 mm 1 mps 664 mmHg 77%
10:00 +25°C° 0.1 mm 1 mps 663 mmHg 74%
11:00 +26°C° 0.1 mm 2 mps 663 mmHg 71%
12:00 +27°C° 0.1 mm 3 mps 663 mmHg 68%
13:00 +27°C° 0.5 mm 3 mps 663 mmHg 66%
14:00 +28°C° 0.5 mm 3 mps 662 mmHg 64%
15:00 +29°C° 0.5 mm 3 mps 662 mmHg 62%
16:00 +27°C° 1.9 mm 2 mps 661 mmHg 67%
17:00 +26°C° 1.9 mm 2 mps 661 mmHg 72%
18:00 +25°C° 1.9 mm 2 mps 660 mmHg 78%
19:00 +24°C° 0.6 mm 2 mps 661 mmHg 80%
20:00 +23°C° 0.6 mm 1 mps 661 mmHg 83%
21:00 +23°C° 0.6 mm 1 mps 662 mmHg 85%
22:00 +23°C° 0.2 mm 1 mps 662 mmHg 85%
23:00 +22°C° 0.2 mm 1 mps 662 mmHg 85%

29 October, Thursday

Time Temperature Precipitation Wind Pressure Humidity
00:00 +22°C° 0.2 mm 1 mps 662 mmHg 85%
01:00 +22°C° 0 mm 1 mps 662 mmHg 84%
02:00 +22°C° 0 mm 1 mps 661 mmHg 84%
03:00 +22°C° 0 mm 1 mps 661 mmHg 84%
04:00 +22°C° 0 mm 1 mps 662 mmHg 84%
05:00 +22°C° 0 mm 1 mps 662 mmHg 84%
06:00 +22°C° 0 mm 1 mps 662 mmHg 84%
07:00 +23°C° 0 mm 1 mps 663 mmHg 82%
08:00 +24°C° 0 mm 2 mps 664 mmHg 79%
09:00 +25°C° 0 mm 2 mps 665 mmHg 76%
10:00 +26°C° 0.7 mm 2 mps 664 mmHg 71%
11:00 +27°C° 0.7 mm 3 mps 664 mmHg 66%
12:00 +28°C° 0.7 mm 4 mps 664 mmHg 62%
13:00 +28°C° 1.4 mm 3 mps 664 mmHg 62%
14:00 +28°C° 1.4 mm 3 mps 663 mmHg 63%
15:00 +28°C° 1.4 mm 2 mps 663 mmHg 63%
16:00 +27°C° 1.5 mm 2 mps 663 mmHg 68%
17:00 +25°C° 1.5 mm 2 mps 663 mmHg 74%
18:00 +24°C° 1.5 mm 2 mps 663 mmHg 79%
19:00 +24°C° 0.6 mm 2 mps 663 mmHg 79%
20:00 +23°C° 0.6 mm 1 mps 663 mmHg 79%
21:00 +23°C° 0.6 mm 1 mps 664 mmHg 80%
22:00 +23°C° 0.3 mm 1 mps 664 mmHg 81%
23:00 +23°C° 0.3 mm 1 mps 664 mmHg 83%

30 October, Friday

Time Temperature Precipitation Wind Pressure Humidity
00:00 +22°C° 0.3 mm 1 mps 664 mmHg 85%
01:00 +22°C° 1.2 mm 1 mps 664 mmHg 85%
02:00 +22°C° 1.2 mm 1 mps 663 mmHg 85%
03:00 +22°C° 1.2 mm 1 mps 663 mmHg 85%
04:00 +22°C° 0.5 mm 1 mps 663 mmHg 87%
05:00 +22°C° 0.5 mm 1 mps 664 mmHg 89%
06:00 +21°C° 0.5 mm 1 mps 664 mmHg 90%
07:00 +22°C° 0.6 mm 1 mps 665 mmHg 88%
08:00 +23°C° 0.6 mm 2 mps 665 mmHg 86%
09:00 +23°C° 0.6 mm 2 mps 666 mmHg 84%
10:00 +24°C° 0.8 mm 2 mps 666 mmHg 82%
11:00 +24°C° 0.8 mm 3 mps 665 mmHg 80%
12:00 +25°C° 0.8 mm 3 mps 665 mmHg 78%
13:00 +25°C° 0.9 mm 3 mps 665 mmHg 78%
14:00 +25°C° 0.9 mm 3 mps 664 mmHg 79%
15:00 +24°C° 0.9 mm 3 mps 664 mmHg 80%
16:00 +24°C° 0.5 mm 3 mps 664 mmHg 82%
17:00 +23°C° 0.5 mm 2 mps 664 mmHg 84%
18:00 +23°C° 0.5 mm 1 mps 664 mmHg 86%
19:00 +23°C° 0.1 mm 1 mps 664 mmHg 86%
20:00 +22°C° 0.1 mm 1 mps 665 mmHg 87%
21:00 +22°C° 0.1 mm 1 mps 665 mmHg 87%
22:00 +22°C° 0.1 mm 1 mps 665 mmHg 87%
23:00 +22°C° 0.1 mm 1 mps 665 mmHg 86%

31 October, Saturday

Time Temperature Precipitation Wind Pressure Humidity
00:00 +22°C° 0.1 mm 1 mps 665 mmHg 86%
01:00 +22°C° 0.1 mm 1 mps 665 mmHg 86%
02:00 +21°C° 0.1 mm 1 mps 664 mmHg 86%
03:00 +21°C° 0.1 mm 1 mps 664 mmHg 86%
Show more